TimeEDT,TemperatureF,Dew PointF,Humidity,Sea Level PressureIn,VisibilityMPH,Wind Direction,Wind SpeedMPH,Gust SpeedMPH,PrecipitationIn,Events,Conditions,WindDirDegrees,DateUTC
12:10 AM,51.8,48.2,88,30.08,3.0,SSE,3.5,-,N/A,,Clear,160,2013-10-12 04:10:00
12:45 AM,51.8,48.2,88,30.08,2.5,SSE,3.5,-,N/A,,Clear,160,2013-10-12 04:45:00
12:56 AM,50.9,47.8,89,30.07,5.0,SSE,3.5,-,N/A,,Clear,150,2013-10-12 04:56:00
1:32 AM,51.8,48.2,88,30.08,1.8,SSE,3.5,-,N/A,,Clear,150,2013-10-12 05:32:00
1:56 AM,50.9,47.8,89,30.07,2.0,SE,5.8,-,N/A,,Clear,140,2013-10-12 05:56:00
2:04 AM,51.8,48.2,88,30.08,5.0,SE,5.8,-,N/A,,Clear,130,2013-10-12 06:04:00
2:17 AM,51.8,48.2,88,30.09,1.8,Calm,Calm,-,N/A,,Clear,0,2013-10-12 06:17:00
2:29 AM,53.6,48.2,82,30.09,3.0,Calm,Calm,-,N/A,,Clear,0,2013-10-12 06:29:00
2:42 AM,51.8,48.2,88,30.09,1.8,Calm,Calm,-,N/A,,Clear,0,2013-10-12 06:42:00
2:56 AM,50.9,48.9,93,30.08,4.0,SSE,3.5,-,N/A,,Clear,150,2013-10-12 06:56:00
3:07 AM,50.0,48.2,94,30.09,1.8,Calm,Calm,-,N/A,,Clear,0,2013-10-12 07:07:00
3:18 AM,51.8,48.2,88,30.09,1.2,Calm,Calm,-,N/A,,Clear,0,2013-10-12 07:18:00
3:27 AM,51.8,48.2,88,30.09,1.5,Calm,Calm,-,N/A,,Clear,0,2013-10-12 07:27:00
3:56 AM,50.9,48.9,93,30.07,1.5,SSE,3.5,-,N/A,,Clear,150,2013-10-12 07:56:00
4:02 AM,51.8,48.2,88,30.08,3.0,SSE,3.5,-,N/A,,Clear,160,2013-10-12 08:02:00
4:34 AM,50.0,48.2,94,30.09,2.0,Calm,Calm,-,N/A,,Clear,0,2013-10-12 08:34:00
4:43 AM,50.0,48.2,94,30.09,5.0,Calm,Calm,-,N/A,,Clear,0,2013-10-12 08:43:00
4:56 AM,50.0,48.9,96,30.08,1.2,Calm,Calm,-,N/A,,Clear,0,2013-10-12 08:56:00
5:12 AM,50.0,48.2,94,30.09,2.0,SSE,3.5,-,N/A,,Clear,150,2013-10-12 09:12:00
5:21 AM,50.0,48.2,94,30.09,6.0,SSE,3.5,-,N/A,,Clear,150,2013-10-12 09:21:00
5:41 AM,50.0,48.2,94,30.10,2.0,Calm,Calm,-,N/A,,Clear,0,2013-10-12 09:41:00
5:56 AM,48.9,48.9,100,30.09,1.5,Calm,Calm,-,N/A,,Clear,0,2013-10-12 09:56:00
6:04 AM,48.2,48.2,100,30.10,1.2,Calm,Calm,-,N/A,,Clear,0,2013-10-12 10:04:00
6:20 AM,50.0,48.2,94,30.10,2.0,SSE,3.5,-,N/A,,Clear,160,2013-10-12 10:20:00
6:38 AM,48.2,48.2,100,30.11,1.8,SSE,3.5,-,N/A,,Clear,160,2013-10-12 10:38:00
6:42 AM,48.2,48.2,100,30.11,3.0,Calm,Calm,-,N/A,,Clear,0,2013-10-12 10:42:00
6:56 AM,48.9,48.9,100,30.11,1.8,Calm,Calm,-,N/A,,Clear,0,2013-10-12 10:56:00
7:06 AM,48.2,48.2,100,30.11,1.2,SSE,3.5,-,N/A,,Clear,160,2013-10-12 11:06:00
7:10 AM,48.2,48.2,100,30.11,2.0,Calm,Calm,-,N/A,,Clear,0,2013-10-12 11:10:00
7:19 AM,50.0,48.2,94,30.11,5.0,SSE,3.5,-,N/A,,Clear,150,2013-10-12 11:19:00
7:39 AM,48.2,48.2,100,30.12,1.8,Calm,Calm,-,N/A,,Clear,0,2013-10-12 11:39:00
7:46 AM,48.2,48.2,100,30.12,1.0,Calm,Calm,-,N/A,,Clear,0,2013-10-12 11:46:00
7:56 AM,48.9,48.9,100,30.11,0.8,Calm,Calm,-,N/A,,Clear,0,2013-10-12 11:56:00
8:04 AM,48.2,48.2,100,30.11,1.2,Calm,Calm,-,N/A,,Clear,0,2013-10-12 12:04:00
8:08 AM,48.2,48.2,100,30.11,2.0,SSE,3.5,-,N/A,,Clear,150,2013-10-12 12:08:00
8:19 AM,50.0,50.0,100,30.12,3.0,SSE,3.5,-,N/A,,Clear,160,2013-10-12 12:19:00
8:28 AM,51.8,51.8,100,30.12,1.8,Calm,Calm,-,N/A,,Clear,0,2013-10-12 12:28:00
8:30 AM,51.8,51.8,100,30.12,1.0,Calm,Calm,-,N/A,,Clear,0,2013-10-12 12:30:00
8:39 AM,53.6,53.6,100,30.12,0.8,Calm,Calm,-,N/A,,Clear,0,2013-10-12 12:39:00
8:56 AM,55.9,54.9,96,30.12,0.8,Calm,Calm,-,N/A,,Clear,0,2013-10-12 12:56:00
9:01 AM,57.2,55.4,94,30.12,1.2,SSE,3.5,-,N/A,,Clear,150,2013-10-12 13:01:00
9:06 AM,57.2,55.4,94,30.12,2.0,Calm,Calm,-,N/A,,Clear,0,2013-10-12 13:06:00
9:14 AM,59.0,55.4,88,30.13,1.2,Calm,Calm,-,N/A,,Clear,0,2013-10-12 13:14:00
9:26 AM,60.8,57.2,88,30.13,1.0,Calm,Calm,-,N/A,,Clear,0,2013-10-12 13:26:00
9:47 AM,62.6,57.2,82,30.13,1.2,Calm,Calm,-,N/A,,Haze,0,2013-10-12 13:47:00
9:56 AM,63.9,59.0,84,30.12,1.5,Calm,Calm,-,N/A,,Haze,0,2013-10-12 13:56:00
10:07 AM,64.4,57.2,77,30.13,3.0,SE,4.6,-,N/A,,Haze,140,2013-10-12 14:07:00
10:56 AM,68.0,56.8,67,30.12,7.0,Variable,5.8,-,N/A,,Scattered Clouds,0,2013-10-12 14:56:00
11:56 AM,70.9,59.0,66,30.11,8.0,SSE,3.5,-,N/A,,Clear,150,2013-10-12 15:56:00
12:56 PM,73.9,59.0,59,30.10,8.0,Variable,3.5,-,N/A,,Clear,0,2013-10-12 16:56:00
1:56 PM,74.8,59.9,60,30.09,7.0,Variable,4.6,-,N/A,,Clear,0,2013-10-12 17:56:00
2:56 PM,77.0,59.9,55,30.07,8.0,South,4.6,-,N/A,,Scattered Clouds,180,2013-10-12 18:56:00
3:56 PM,74.8,59.9,60,30.09,8.0,South,4.6,-,N/A,,Overcast,180,2013-10-12 19:56:00
4:56 PM,74.8,59.9,60,30.08,8.0,Calm,Calm,-,N/A,,Mostly Cloudy,0,2013-10-12 20:56:00
5:56 PM,73.9,59.9,61,30.09,7.0,SSE,6.9,-,N/A,,Overcast,150,2013-10-12 21:56:00
6:56 PM,68.9,59.9,73,30.09,7.0,SE,6.9,-,N/A,,Partly Cloudy,130,2013-10-12 22:56:00
7:56 PM,64.9,59.0,81,30.11,7.0,SE,6.9,-,N/A,,Clear,140,2013-10-12 23:56:00
8:56 PM,61.9,57.9,87,30.12,6.0,SSE,5.8,-,N/A,,Clear,150,2013-10-13 00:56:00
9:56 PM,61.0,57.9,90,30.13,6.0,SSE,3.5,-,N/A,,Clear,150,2013-10-13 01:56:00
10:56 PM,59.9,57.9,93,30.14,5.0,SSE,3.5,-,N/A,,Overcast,160,2013-10-13 02:56:00
11:56 PM,59.0,57.9,96,30.15,5.0,Calm,Calm,-,N/A,,Partly Cloudy,0,2013-10-13 03:56:00